WV5G-13 Weather Reports


Display with metric or nautical units.
time (UTC)temp
F
wind
direction
speed
MPH
gust
MPH
rain 1hr
in
rain 24hr
in
rain mn
in
humidity
%
barometer
mb
20260507104357 42 323 3.0 7.0 0.00 0.00 0.00 95 1018.5
20260507103853 42 332 3.0 9.0 0.00 0.00 0.00 95 1018.6
20260507103350 42 332 5.0 6.0 0.00 0.00 0.00 95 1018.7
20260507102846 42 333 6.0 7.0 0.00 0.00 0.00 95 1018.5
20260507102343 42 336 5.0 7.0 0.00 0.00 0.00 95 1018.6
20260507101839 42 339 3.0 6.0 0.00 0.00 0.00 95 1018.7
20260507101334 42 344 3.0 7.0 0.00 0.00 0.00 95 1018.6
20260507100832 42 349 2.0 5.0 0.00 0.00 0.00 95 1018.7
20260507100329 42 339 3.0 6.0 0.00 0.00 0.00 95 1018.4
20260507095827 42 354 2.0 4.0 0.00 0.00 0.00 95 1018.6
20260507095323 41 0 2.0 4.0 0.00 0.00 0.00 95 1018.7
20260507094821 41 338 2.0 4.0 0.00 0.00 0.00 95 1018.6
20260507094317 41 356 2.0 3.0 0.00 0.00 0.00 95 1018.6
20260507093814 41 338 2.0 3.0 0.00 0.00 0.00 94 1018.6
20260507093313 41 346 3.0 4.0 0.00 0.00 0.00 94 1018.4
20260507092810 41 357 3.0 5.0 0.00 0.00 0.00 94 1018.7
20260507092307 41 337 3.0 5.0 0.00 0.00 0.00 94 1018.5
20260507091803 41 341 3.0 4.0 0.00 0.00 0.00 94 1018.4
20260507091300 41 336 3.0 5.0 0.00 0.00 0.00 94 1018.4
20260507090759 41 337 5.0 11.0 0.00 0.00 0.00 94 1018.6
20260507090257 41 69 0.0 0.0 0.00 0.00 0.00 93 1018.4
20260507085754 42 69 0.0 1.0 0.00 0.00 0.00 93 1018.1
20260507085250 42 80 0.0 2.0 0.00 0.00 0.00 93 1018.2
20260507084748 42 141 0.0 2.0 0.00 0.00 0.00 93 1018.1
20260507084244 42 132 0.0 2.0 0.00 0.00 0.00 92 1018.1
20260507083742 42 84 1.0 2.0 0.00 0.00 0.00 92 1018.5
20260507083238 42 88 1.0 3.0 0.00 0.00 0.00 92 1018.2
20260507082734 42 86 2.0 3.0 0.00 0.00 0.00 92 1018.1
20260507082230 42 71 2.0 3.0 0.00 0.00 0.00 91 1018.1
20260507081727 42 61 4.0 4.0 0.00 0.00 0.00 91 1018.6
20260507081223 42 49 3.0 4.0 0.00 0.00 0.00 91 1018.2
20260507080720 42 43 4.0 5.0 0.00 0.00 0.00 91 1018.5
20260507080216 43 68 3.0 6.0 0.00 0.00 0.00 91 1018.7
20260507075711 43 43 5.0 6.0 0.00 0.00 0.00 90 1018.6
20260507075208 43 78 3.0 5.0 0.00 0.00 0.00 90 1018.2
20260507074704 43 61 6.0 9.0 0.00 0.00 0.00 90 1018.1
20260507074203 43 56 4.0 8.0 0.00 0.00 0.00 89 1017.8
20260507073659 43 109 7.0 8.0 0.00 0.00 0.00 89 1018.0
20260507073155 43 33 4.0 7.0 0.00 0.00 0.00 88 1018.9
20260507072653 43 357 4.0 9.0 0.00 0.00 0.00 87 1019.4
20260507072150 43 10 7.0 10.0 0.00 0.00 0.00 86 1018.9
20260507071648 44 12 9.0 11.0 0.00 0.00 0.00 84 1018.9
20260507071144 44 29 9.0 11.0 0.00 0.00 0.00 82 1019.4
20260507070641 45 344 6.0 9.0 0.00 0.00 0.00 79 1019.5
20260507070138 45 4 3.0 10.0 0.00 0.00 0.00 77 1019.8
20260507065634 45 11 4.0 9.0 0.00 0.00 0.00 75 1019.7
20260507065131 45 11 8.0 11.0 0.00 0.00 0.00 74 1019.8
20260507064629 45 22 7.0 14.0 0.00 0.00 0.00 72 1019.5
20260507064127 46 0 11.0 11.0 0.00 0.00 0.00 72 1019.6
20260507063624 46 20 7.0 12.0 0.00 0.00 0.00 71 1019.8
20260507063121 46 0 11.0 11.0 0.00 0.00 0.00 70 1019.8
20260507062618 46 43 6.0 10.0 0.00 0.00 0.00 69 1019.1
20260507062116 46 37 9.0 12.0 0.00 0.00 0.00 69 1019.4
20260507061613 46 28 10.0 14.0 0.00 0.00 0.00 68 1019.5
20260507061111 46 24 13.0 14.0 0.00 0.00 0.00 68 1019.0
20260507060609 46 33 13.0 15.0 0.00 0.00 0.00 68 1019.1
20260507060105 46 30 11.0 16.0 0.00 0.00 0.00 67 1018.8
20260507055601 46 31 8.0 19.0 0.00 0.00 0.00 67 1018.6
20260507055057 46 32 9.0 15.0 0.00 0.00 0.00 67 1018.6
20260507054553 46 42 14.0 19.0 0.00 0.00 0.00 67 1018.9
20260507054050 46 27 10.0 21.0 0.00 0.00 0.00 66 1018.8
20260507053548 46 31 13.0 20.0 0.00 0.00 0.00 66 1018.9
20260507053047 47 16 13.0 20.0 0.00 0.00 0.00 65 1019.0
20260507052544 47 21 7.0 17.0 0.00 0.00 0.00 65 1018.7
20260507052040 46 30 11.0 15.0 0.00 0.00 0.00 65 1018.2
20260507051538 47 36 14.0 21.0 0.00 0.00 0.00 65 1018.5
20260507051035 47 42 17.0 21.0 0.00 0.00 0.00 65 1018.6
20260507050531 47 26 18.0 23.0 0.00 0.00 0.00 65 1018.4
20260507050028 46 33 16.0 20.0 0.00 0.00 0.00 65 1018.4
20260507045524 46 21 15.0 22.0 0.00 0.00 0.00 65 1018.7
20260507045022 46 16 12.0 20.0 0.00 0.00 0.00 65 1018.9
20260507044518 47 17 12.0 25.0 0.00 0.00 0.00 64 1018.7
20260507044015 47 9 25.0 26.0 0.00 0.00 0.00 63 1019.0
20260507043511 48 19 17.0 20.0 0.00 0.00 0.00 61 1018.8
20260507043009 48 14 17.0 24.0 0.00 0.00 0.00 61 1018.4
20260507042504 48 18 17.0 25.0 0.00 0.00 0.00 60 1018.4
20260507042000 48 22 23.0 27.0 0.00 0.00 0.00 60 1018.5
20260507041457 48 17 18.0 28.0 0.00 0.00 0.00 60 1018.5
20260507040954 48 23 23.0 27.0 0.00 0.00 0.00 60 1018.2
20260507040450 48 23 17.0 25.0 0.00 0.00 0.00 60 1018.2
20260507035946 48 11 15.0 22.0 0.00 0.00 0.00 59 1018.2
20260507035443 49 16 20.0 23.0 0.00 0.00 0.00 59 1018.4
20260507034939 49 23 22.0 24.0 0.00 0.00 0.00 59 1018.0
20260507034436 49 20 13.0 20.0 0.00 0.00 0.00 58 1018.2
20260507033935 49 15 19.0 25.0 0.00 0.00 0.00 58 1018.1
20260507033432 50 16 17.0 29.0 0.00 0.00 0.00 58 1018.0
20260507032928 50 23 14.0 29.0 0.00 0.00 0.00 58 1018.0
20260507032426 50 29 17.0 28.0 0.00 0.00 0.00 58 1018.0
20260507031921 50 13 19.0 30.0 0.00 0.00 0.00 56 1017.9
20260507031418 51 15 17.0 23.0 0.00 0.00 0.00 56 1017.7
20260507030915 51 22 21.0 27.0 0.00 0.00 0.00 56 1017.6
20260507030413 51 20 24.0 30.0 0.00 0.00 0.00 56 1017.2
20260507025909 51 19 15.0 26.0 0.00 0.00 0.00 56 1017.4
20260507025407 51 17 16.0 24.0 0.00 0.00 0.00 55 1017.4
20260507024905 51 21 18.0 25.0 0.00 0.00 0.00 55 1017.5
20260507024402 52 16 14.0 26.0 0.00 0.00 0.00 55 1017.0
20260507023857 52 28 18.0 28.0 0.00 0.00 0.00 54 1016.9
20260507023354 52 13 19.0 30.0 0.00 0.00 0.00 54 1016.8
20260507022852 52 16 14.0 27.0 0.00 0.00 0.00 53 1016.4
20260507022348 53 8 9.0 23.0 0.00 0.00 0.00 53 1016.1
20260507021844 53 15 15.0 28.0 0.00 0.00 0.00 52 1016.5
20260507021339 54 5 19.0 24.0 0.00 0.00 0.00 52 1016.1
20260507020837 54 13 13.0 20.0 0.00 0.00 0.00 52 1016.1
20260507020334 54 23 13.0 19.0 0.00 0.00 0.00 53 1015.8
20260507015831 53 18 7.0 20.0 0.00 0.00 0.00 54 1015.7
20260507015329 53 23 11.0 16.0 0.00 0.00 0.00 54 1015.2
20260507014826 53 37 11.0 16.0 0.00 0.00 0.00 54 1015.1
20260507014322 53 33 12.0 17.0 0.00 0.00 0.00 54 1014.9
20260507013818 54 25 15.0 20.0 0.00 0.00 0.00 53 1014.6
20260507013316 54 33 11.0 18.0 0.00 0.00 0.00 53 1014.6
20260507012813 54 29 15.0 17.0 0.00 0.00 0.00 53 1014.1
20260507012309 54 43 13.0 19.0 0.00 0.00 0.00 52 1013.9
20260507011806 55 65 14.0 19.0 0.00 0.00 0.00 51 1014.0
20260507011303 55 53 10.0 18.0 0.00 0.00 0.00 50 1013.9
20260507010802 56 65 16.0 23.0 0.00 0.00 0.00 50 1013.6
20260507010258 56 52 13.0 20.0 0.00 0.00 0.00 50 1013.7
20260507005756 56 54 15.0 24.0 0.00 0.00 0.00 49 1013.3
20260507005252 57 58 15.0 23.0 0.00 0.00 0.00 49 1013.3
20260507004749 57 64 12.0 20.0 0.00 0.00 0.00 48 1013.2
20260507004246 58 71 10.0 18.0 0.00 0.00 0.00 47 1013.2
20260507003742 58 73 8.0 19.0 0.00 0.00 0.00 48 1013.3
20260507003238 57 63 15.0 24.0 0.00 0.00 0.00 48 1013.0
20260507002734 58 60 14.0 22.0 0.00 0.00 0.00 47 1013.1
20260507002230 58 83 17.0 23.0 0.00 0.00 0.00 46 1013.0
20260507001727 59 87 13.0 18.0 0.00 0.00 0.00 46 1013.1
20260507001225 58 61 15.0 23.0 0.00 0.00 0.00 46 1012.9
20260507000721 58 44 18.0 26.0 0.00 0.00 0.00 47 1012.9
20260507000216 58 69 25.0 26.0 0.00 0.00 0.00 47 1012.3
20260506235714 60 91 12.0 19.0 0.00 0.00 0.00 45 1012.8
20260506235209 59 97 16.0 16.0 0.00 0.00 0.00 46 1012.5
20260506234706 59 96 11.0 19.0 0.00 0.00 0.00 46 1012.2
20260506234204 59 54 15.0 22.0 0.00 0.00 0.00 46 1012.3
20260506233701 59 72 14.0 27.0 0.00 0.00 0.00 46 1012.6
20260506233157 59 99 14.0 20.0 0.00 0.00 0.00 46 1012.8
20260506232654 60 92 14.0 18.0 0.00 0.00 0.00 45 1012.8
20260506232149 59 72 11.0 17.0 0.00 0.00 0.00 46 1012.7
20260506231646 59 97 13.0 16.0 0.00 0.00 0.00 47 1012.8
20260506231145 59 85 15.0 22.0 0.00 0.00 0.00 47 1012.7
20260506230641 59 73 15.0 19.0 0.00 0.00 0.00 47 1012.8
20260506230138 59 68 14.0 26.0 0.00 0.00 0.00 46 1012.7
20260506225635 59 72 11.0 22.0 0.00 0.00 0.00 47 1012.7
20260506225131 59 94 5.0 16.0 0.00 0.00 0.00 46 1012.6
20260506224628 59 113 13.0 24.0 0.00 0.00 0.00 46 1012.7
20260506224124 59 77 14.0 16.0 0.00 0.00 0.00 47 1013.0
20260506223621 58 79 11.0 21.0 0.00 0.00 0.00 47 1012.8
20260506223117 59 71 13.0 19.0 0.00 0.00 0.00 47 1012.7
20260506222614 58 102 19.0 21.0 0.00 0.00 0.00 48 1012.9
20260506222110 58 87 16.0 24.0 0.00 0.00 0.00 48 1013.0
20260506221608 59 63 23.0 26.0 0.00 0.00 0.00 47 1012.8
20260506221106 57 79 8.0 18.0 0.00 0.00 0.00 49 1012.8
20260506220602 59 76 17.0 24.0 0.00 0.00 0.00 47 1012.7
20260506220057 58 42 13.0 22.0 0.00 0.00 0.00 49 1012.8
20260506215554 57 63 15.0 27.0 0.00 0.00 0.00 49 1012.9
20260506215050 57 66 15.0 23.0 0.00 0.00 0.00 50 1012.8
20260506214547 57 64 19.0 33.0 0.00 0.00 0.00 50 1013.2
20260506214044 57 80 24.0 34.0 0.00 0.00 0.00 50 1012.9
20260506213543 58 79 15.0 25.0 0.00 0.00 0.00 49 1012.9
20260506213040 56 69 15.0 25.0 0.00 0.00 0.00 51 1013.2
20260506212536 58 75 14.0 21.0 0.00 0.00 0.00 49 1013.2
20260506212031 59 45 25.0 29.0 0.00 0.00 0.00 48 1013.1
20260506211527 59 51 9.0 20.0 0.00 0.00 0.00 48 1013.3
20260506211025 57 79 13.0 20.0 0.00 0.00 0.00 51 1013.2
20260506210521 56 87 15.0 25.0 0.00 0.00 0.00 51 1013.2
20260506210018 57 76 12.0 22.0 0.00 0.00 0.00 50 1013.3
20260506205514 58 64 21.0 21.0 0.00 0.00 0.00 49 1013.2
20260506205010 58 122 9.0 24.0 0.00 0.00 0.00 49 1013.2
20260506204508 58 108 12.0 21.0 0.00 0.00 0.00 48 1013.3
20260506204004 57 101 14.0 24.0 0.00 0.00 0.00 51 1013.1
20260506203503 56 58 19.0 29.0 0.00 0.00 0.00 50 1013.5
20260506202958 60 72 25.0 43.0 0.00 0.00 0.00 46 1013.3
20260506202456 60 82 11.0 22.0 0.00 0.00 0.00 46 1013.3
20260506201947 59 127 19.0 23.0 0.00 0.00 0.00 47 1013.0
20260506201444 58 88 8.0 20.0 0.00 0.00 0.00 48 1013.1
20260506200941 59 66 15.0 25.0 0.00 0.00 0.00 47 1012.9
20260506200437 60 80 20.0 20.0 0.00 0.00 0.00 45 1013.3
20260506195933 58 93 8.0 20.0 0.00 0.00 0.00 48 1013.2
20260506195431 56 115 13.0 22.0 0.00 0.00 0.00 50 1013.1
20260506194927 57 117 11.0 20.0 0.00 0.00 0.00 48 1013.5
20260506194424 58 107 9.0 15.0 0.00 0.00 0.00 48 1013.5
20260506193921 56 46 11.0 14.0 0.00 0.00 0.00 52 1013.6
20260506193419 56 96 7.0 13.0 0.00 0.00 0.00 51 1013.6
20260506192915 58 98 11.0 19.0 0.00 0.00 0.00 48 1013.6
20260506192412 58 21 13.0 18.0 0.00 0.00 0.00 49 1013.7
20260506191909 57 70 10.0 17.0 0.00 0.00 0.00 50 1013.8
20260506191405 55 61 9.0 18.0 0.00 0.00 0.00 52 1013.7
20260506190902 55 86 9.0 21.0 0.00 0.00 0.00 51 1013.8
20260506190358 58 75 10.0 15.0 0.00 0.00 0.00 49 1013.7
20260506185855 58 88 11.0 16.0 0.00 0.00 0.00 50 1013.6
20260506185352 57 47 14.0 22.0 0.00 0.00 0.00 52 1013.5
20260506184849 54 63 16.0 17.0 0.00 0.00 0.00 54 1013.9
20260506184346 54 98 16.0 17.0 0.00 0.00 0.00 55 1014.1
20260506183844 55 85 11.0 17.0 0.00 0.00 0.00 53 1014.2
20260506183339 56 101 17.0 18.0 0.00 0.00 0.00 52 1014.0
20260506182836 56 99 6.0 16.0 0.00 0.00 0.00 52 1014.2
20260506182333 54 117 10.0 18.0 0.00 0.00 0.00 56 1014.3
20260506181831 53 89 11.0 18.0 0.00 0.00 0.00 56 1014.8
20260506181329 55 55 12.0 19.0 0.00 0.00 0.00 54 1014.2
20260506180825 53 29 7.0 12.0 0.00 0.00 0.00 56 1014.3
20260506180322 52 113 8.0 18.0 0.00 0.00 0.00 58 1014.7
20260506175818 52 111 9.0 17.0 0.00 0.00 0.00 57 1014.6
20260506175315 54 66 15.0 20.0 0.00 0.00 0.00 55 1014.6
20260506174812 53 303 0.0 11.0 0.00 0.00 0.00 57 1014.5
20260506174309 53 88 6.0 17.0 0.00 0.00 0.00 58 1015.0
20260506173807 51 67 11.0 16.0 0.00 0.00 0.00 60 1014.7
20260506173303 52 91 9.0 17.0 0.00 0.00 0.00 59 1014.7
20260506172800 53 66 5.0 15.0 0.00 0.00 0.00 57 1014.8
20260506172257 54 83 15.0 22.0 0.00 0.00 0.00 57 1014.5
20260506171755 52 63 9.0 17.0 0.00 0.00 0.00 59 1014.6
20260506171251 52 42 13.0 19.0 0.00 0.00 0.00 59 1014.7
20260506170749 52 52 5.0 18.0 0.00 0.00 0.00 60 1014.5
20260506170245 52 82 5.0 18.0 0.00 0.00 0.00 59 1014.6
20260506165744 52 84 11.0 19.0 0.00 0.00 0.00 59 1014.7
20260506165241 53 100 11.0 16.0 0.00 0.00 0.00 59 1014.5
20260506164738 51 89 8.0 17.0 0.00 0.00 0.00 61 1014.5
20260506164235 51 54 15.0 22.0 0.00 0.00 0.00 60 1014.7
20260506163732 50 60 14.0 17.0 0.00 0.00 0.00 63 1014.6
20260506163226 52 66 15.0 16.0 0.00 0.00 0.00 60 1014.5
20260506162723 50 94 10.0 14.0 0.00 0.00 0.00 62 1014.3
20260506162220 49 73 5.0 16.0 0.00 0.00 0.00 63 1014.6
20260506161712 51 109 5.0 15.0 0.00 0.00 0.00 61 1014.6
20260506161209 50 65 10.0 15.0 0.00 0.00 0.00 62 1014.5
20260506160707 50 32 5.0 16.0 0.00 0.00 0.00 63 1014.1
20260506160203 49 111 14.0 18.0 0.00 0.00 0.00 64 1014.2
20260506155702 50 87 10.0 19.0 0.00 0.00 0.00 64 1014.0
20260506155158 48 80 9.0 14.0 0.00 0.00 0.00 65 1013.9
20260506153300 47 81 9.0 14.0 0.00 0.00 0.00 66 1014.2
20260506152757 48 55 7.0 9.0 0.00 0.00 0.00 67 1014.0
20260506152254 47 82 11.0 13.0 0.00 0.00 0.00 67 1013.6
20260506151753 47 116 7.0 10.0 0.00 0.00 0.00 67 1013.7
20260506151249 47 120 12.0 16.0 0.00 0.00 0.00 67 1014.0
20260506150746 47 112 12.0 17.0 0.00 0.00 0.00 67 1013.9
20260506150243 47 95 12.0 18.0 0.00 0.00 0.00 67 1013.8
20260506145740 46 101 8.0 16.0 0.00 0.00 0.00 68 1014.1
20260506145236 46 88 9.0 15.0 0.00 0.00 0.00 68 1013.8
20260506144734 46 121 15.0 17.0 0.00 0.00 0.00 68 1013.8
20260506144231 46 113 9.0 17.0 0.00 0.00 0.00 68 1013.9
20260506143728 45 110 17.0 17.0 0.00 0.00 0.00 70 1013.3
20260506143226 45 119 11.0 17.0 0.00 0.00 0.00 69 1013.3
20260506142724 46 91 12.0 18.0 0.00 0.00 0.00 69 1013.2
20260506142222 46 117 15.0 23.0 0.00 0.00 0.00 69 1013.5
20260506141720 45 119 14.0 22.0 0.00 0.00 0.00 70 1013.0
20260506141218 46 124 13.0 23.0 0.00 0.00 0.00 68 1013.0
20260506140715 45 118 14.0 19.0 0.00 0.00 0.00 70 1012.9
20260506140212 45 119 14.0 20.0 0.00 0.00 0.00 70 1012.8
20260506135708 45 122 13.0 22.0 0.00 0.00 0.00 70 1013.0
20260506135205 44 119 15.0 24.0 0.00 0.00 0.00 71 1013.0
20260506134702 44 119 18.0 21.0 0.00 0.00 0.00 70 1013.0
20260506134158 44 117 19.0 25.0 0.00 0.00 0.00 71 1013.0
20260506133655 44 120 15.0 20.0 0.00 0.00 0.00 71 1013.2
20260506133151 43 120 24.0 24.0 0.00 0.00 0.00 72 1013.2
20260506132649 43 132 22.0 26.0 0.00 0.00 0.00 72 1013.3
20260506132146 43 124 24.0 25.0 0.00 0.00 0.00 72 1013.5
20260506131644 43 122 17.0 23.0 0.00 0.00 0.00 71 1013.6
20260506131139 43 98 13.0 15.0 0.00 0.00 0.00 71 1013.9
20260506130636 43 103 11.0 17.0 0.00 0.00 0.00 72 1013.8
20260506130134 43 94 8.0 19.0 0.00 0.00 0.00 72 1013.8
20260506125632 43 110 8.0 19.0 0.00 0.00 0.00 72 1013.6
20260506125129 43 114 11.0 14.0 0.00 0.00 0.00 72 1013.6
20260506124627 42 118 17.0 20.0 0.00 0.00 0.00 73 1013.3
20260506124125 42 116 14.0 16.0 0.00 0.00 0.00 73 1013.5
20260506123622 42 96 13.0 17.0 0.00 0.00 0.00 73 1013.9
20260506123121 42 101 9.0 17.0 0.00 0.00 0.00 73 1013.7
20260506122617 42 96 9.0 18.0 0.00 0.00 0.00 73 1013.5
20260506122115 42 114 14.0 24.0 0.00 0.00 0.00 74 1013.5
20260506121612 42 113 17.0 25.0 0.00 0.00 0.00 74 1013.5
20260506121109 42 124 16.0 20.0 0.00 0.00 0.00 74 1013.2
20260506120607 42 114 11.0 19.0 0.00 0.00 0.00 74 1013.2
20260506120104 42 93 10.0 18.0 0.00 0.00 0.00 74 1013.0
20260506115602 42 93 10.0 20.0 0.00 0.00 0.00 74 1012.9
20260506115100 42 110 11.0 19.0 0.00 0.00 0.00 74 1013.0
20260506114557 42 97 18.0 20.0 0.00 0.00 0.00 74 1012.8
20260506114055 42 99 13.0 20.0 0.00 0.00 0.00 73 1012.9
20260506113553 42 100 10.0 15.0 0.00 0.00 0.00 74 1012.7
20260506113050 42 89 13.0 20.0 0.00 0.00 0.00 74 1012.8
20260506112546 42 99 12.0 21.0 0.00 0.00 0.00 75 1012.2
20260506112044 42 93 18.0 22.0 0.00 0.00 0.00 75 1012.6
20260506111542 42 98 13.0 24.0 0.00 0.00 0.00 76 1012.5
20260506111039 42 102 19.0 22.0 0.00 0.00 0.00 78 1012.5
20260506110536 42 87 15.0 21.0 0.00 0.00 0.00 80 1012.7
20260506110033 42 101 11.0 20.0 0.00 0.00 0.00 82 1012.8
20260506105529 41 91 10.0 21.0 0.00 0.00 0.00 83 1012.7
20260506105027 42 98 14.0 22.0 0.00 0.00 0.00 84 1012.9
20260506104525 41 87 15.0 22.0 0.00 0.00 0.00 84 1012.6